EZY32MX LEAL-EGGP

Flight info

Callsign EZY32MX
Flight time N/A
Altitude 36000
Route MITOS N608 COMPI Y90 USKAR N863 GIROM DCT AGN DCT SECHE DCT UVELI DCT CNA DCT MANAK DCT MUREL DCT NOZHU/N0447F370 DCT SHIRI DCT TOJAQ DCT EPACE DCT ACCOP P16 PEPZE
Aircraft A320/M-SDE2E3FGHIJ1RWXYZ/LB1

Departure

Time 2026-04-28 13:47
Airport Alicante-Elche Miguel Hernández Airport (LEAL)

Arrival

Time N/A
Airport Liverpool John Lennon Airport (EGGP)
Time Latitude Longitude Altitude Speed Heading
2026-04-28 13:39 38.28356 -0.55539 98 ft 0 kts 280°
2026-04-28 13:40 38.28360 -0.55570 97 ft 10 kts 281°
2026-04-28 13:40 38.28372 -0.55646 101 ft 8 kts 280°
2026-04-28 13:40 38.28385 -0.55740 102 ft 15 kts 280°
2026-04-28 13:40 38.28404 -0.55875 105 ft 14 kts 279°
2026-04-28 13:41 38.28418 -0.55980 107 ft 10 kts 280°
2026-04-28 13:41 38.28429 -0.56061 108 ft 9 kts 280°
2026-04-28 13:41 38.28444 -0.56171 108 ft 17 kts 279°
2026-04-28 13:41 38.28463 -0.56309 111 ft 14 kts 279°
2026-04-28 13:42 38.28480 -0.56430 116 ft 17 kts 280°
2026-04-28 13:42 38.28499 -0.56565 117 ft 14 kts 279°
2026-04-28 13:42 38.28516 -0.56687 119 ft 15 kts 280°
2026-04-28 13:42 38.28531 -0.56796 124 ft 10 kts 280°
2026-04-28 13:43 38.28547 -0.56908 132 ft 12 kts 280°
2026-04-28 13:43 38.28559 -0.56996 136 ft 13 kts 279°
2026-04-28 13:43 38.28575 -0.57109 141 ft 11 kts 281°
2026-04-28 13:43 38.28586 -0.57183 144 ft 9 kts 281°
2026-04-28 13:44 38.28601 -0.57291 149 ft 15 kts 279°
2026-04-28 13:44 38.28613 -0.57371 151 ft 6 kts 279°
2026-04-28 13:44 38.28608 -0.57404 152 ft 3 kts 237°
2026-04-28 13:44 38.28570 -0.57423 153 ft 6 kts 195°
2026-04-28 13:45 38.28548 -0.57430 154 ft 1 kts 193°
2026-04-28 13:45 38.28533 -0.57434 155 ft 8 kts 193°
2026-04-28 13:45 38.28450 -0.57448 155 ft 10 kts 158°
2026-04-28 13:45 38.28435 -0.57390 152 ft 0 kts 99°
2026-04-28 13:46 38.28432 -0.57366 151 ft 22 kts 99°
2026-04-28 13:46 38.28362 -0.56840 128 ft 95 kts 100°
2026-04-28 13:46 38.28212 -0.55769 104 ft 148 kts 100°
2026-04-28 13:46 38.27999 -0.54376 440 ft 166 kts 99°
2026-04-28 13:47 38.27754 -0.52932 1010 ft 167 kts 99°
2026-04-28 13:47 38.27518 -0.51407 1372 ft 187 kts 98°
2026-04-28 13:47 38.27262 -0.49676 1688 ft 211 kts 98°
2026-04-28 13:47 38.26975 -0.47736 2056 ft 235 kts 100°
2026-04-28 13:48 38.26643 -0.45627 2632 ft 248 kts 95°
2026-04-28 13:48 38.26880 -0.43484 3413 ft 253 kts 67°
2026-04-28 13:48 38.27850 -0.41590 4249 ft 258 kts 53°
2026-04-28 13:48 38.29003 -0.39810 5094 ft 263 kts 51°
2026-04-28 13:49 38.30174 -0.37990 5873 ft 269 kts 53°
2026-04-28 13:49 38.31351 -0.36065 6653 ft 274 kts 54°
2026-04-28 13:49 38.32521 -0.34106 7352 ft 282 kts 54°
2026-04-28 13:49 38.33716 -0.32091 8039 ft 290 kts 54°
2026-04-28 13:50 38.34947 -0.30016 8738 ft 297 kts 54°
2026-04-28 13:50 38.36120 -0.27829 9484 ft 301 kts 64°
2026-04-28 13:50 38.36977 -0.25372 10181 ft 308 kts 69°
2026-04-28 13:50 38.37828 -0.22793 10479 ft 331 kts 69°
2026-04-28 13:51 38.38762 -0.19970 10811 ft 349 kts 69°
2026-04-28 13:51 38.39706 -0.17125 11417 ft 356 kts 69°
2026-04-28 13:51 38.40690 -0.14165 12103 ft 360 kts 69°
2026-04-28 13:51 38.41662 -0.11247 12771 ft 365 kts 69°
2026-04-28 13:52 38.42694 -0.08267 13434 ft 370 kts 64°
2026-04-28 13:52 38.44177 -0.05548 14024 ft 377 kts 48°
2026-04-28 13:52 38.46182 -0.03384 14610 ft 381 kts 32°
2026-04-28 13:52 38.48581 -0.01946 15208 ft 383 kts 15°
2026-04-28 13:53 38.51196 -0.01349 15804 ft 383 kts
2026-04-28 13:53 38.53861 -0.01320 16412 ft 385 kts 358°
2026-04-28 13:53 38.56549 -0.01308 17014 ft 388 kts 358°
2026-04-28 13:53 38.59256 -0.01291 17600 ft 391 kts 358°
2026-04-28 13:54 38.61985 -0.01271 18178 ft 394 kts 358°
2026-04-28 13:54 38.64735 -0.01252 18692 ft 397 kts 358°
2026-04-28 13:54 38.67515 -0.01232 19188 ft 401 kts 358°
2026-04-28 13:54 38.70311 -0.01212 19723 ft 403 kts 359°
2026-04-28 13:55 38.73119 -0.01191 20247 ft 404 kts 359°
2026-04-28 13:55 38.75936 -0.01168 20755 ft 406 kts 359°
2026-04-28 13:55 38.78774 -0.01147 21257 ft 408 kts 359°
2026-04-28 13:55 38.81625 -0.01127 21735 ft 411 kts 359°
2026-04-28 13:56 38.84489 -0.01109 22221 ft 413 kts 359°
2026-04-28 13:56 38.87370 -0.01092 22710 ft 415 kts 359°
2026-04-28 13:56 38.90269 -0.01073 23188 ft 417 kts 359°
2026-04-28 13:56 38.93177 -0.01053 23663 ft 418 kts 359°
2026-04-28 13:57 38.96095 -0.01034 24063 ft 420 kts 359°
2026-04-28 13:57 38.99022 -0.01015 24443 ft 422 kts 359°
2026-04-28 13:57 39.01966 -0.00995 24830 ft 424 kts 359°
2026-04-28 13:57 39.04924 -0.00977 25193 ft 426 kts 359°